Location: Crescent
(42.8242°N, 73.7329°W)
Time: 19:19:32
(UTC+00:00)

Tiros 1 - Pass Details

Date: 23 February 2026
Orbit: 618 x 649 km, 48.4° (Epoch: 10 March)

Event Time Altitude Azimuth Distance (km) Brightness Sun altitude
Rises 15:00:25 0° 289° (WNW) 2,911 10.1 29.9°
Reaches altitude 10° 15:02:50 10° 296° (WNW) 1,998 9.3 30.2°
Maximum altitude 15:07:15 45° 9° (N) 854 7.8 30.7°
Drops below altitude 10° 15:11:37 10° 83° (E) 1,982 10.1 31.1°
Sets 15:14:01 0° 90° (E) 2,885 10.9 31.4°
